Wetbulb
69.56 74.20 75.42 75.22 74.40 73.88 72.83 71.86 70.68 70.24 69.77 69.30 69.18 70.79 71.21 70.68 69.87 68.97 68.21 67.63 67.09 65.86 66.16 67.74 68.80 70.34 68.38 68.71 70.20 69.41 68.06 67.13 67.05 66.48 66.25 64.91 64.36 65.15 65.95 65.65 66.34 66.98 66.05
71.29 74.43 75.74 75.66 74.88 73.51 72.58 71.66 70.70 70.00 69.47 68.79 68.97 69.65 71.07 70.74 70.10 68.95 68.08 66.93 66.05 66.15 65.46 65.75 66.96 67.96 69.14 69.62 69.18 68.47 68.36 67.33 66.43 66.27 65.14 63.82 63.84 65.39 65.52 66.27 66.32 66.45 65.63
71.23 73.91 74.46 75.48 75.01 74.01 72.58 71.62 70.71 69.98 68.63 68.22 69.20 69.38 70.38 69.51 69.20 68.32 67.13 66.58 65.91 66.44 65.38 65.04 65.59 65.67 66.32 66.75 66.96 66.67 66.32 66.20 66.00 66.19 65.06 65.61 64.82 64.83 65.67 66.32 66.41 66.02 65.32
71.57 73.96 74.02 75.34 75.03 74.05 72.74 71.56 70.42 69.93 68.40 68.31 70.33 69.21 68.12 68.23 67.27 66.93 66.69 66.33 66.13 66.39 65.38 65.07 65.29 65.57 65.22 65.17 65.18 64.70 64.87 64.80 65.55 65.93 65.23 63.54 63.85 63.68 66.05 67.20 66.47 67.89 67.40
71.77 73.60 74.20 75.16 75.02 74.05 72.62 71.34 69.95 68.95 68.21 67.62 68.89 68.76 68.33 67.92 66.88 66.25 66.53 66.36 66.58 66.40 65.38 65.51 65.61 65.55 65.60 65.91 66.37 66.72 66.87 66.01 65.79 66.15 65.99 65.98 65.93 64.06 64.50 65.82 67.28 67.44 68.48
71.29 72.95 74.16 74.91 74.84 73.98 73.01 71.13 69.98 68.67 67.95 67.78 68.10 68.16 66.88 67.71 67.57 68.03 68.15 68.28 67.32 66.68 65.41 65.43 65.75 66.55 66.72 66.63 66.26 66.57 67.39 67.47 66.96 67.06 66.96 66.84 66.81 65.83 66.63 66.79 65.88 66.27 67.09
70.90 72.69 73.89 75.00 74.72 73.94 72.57 71.21 70.06 69.00 68.15 67.91 67.83 67.66 67.01 68.44 68.57 69.47 68.96 69.42 67.73 66.86 65.82 65.89 66.84 67.07 67.05 66.83 66.96 67.13 66.87 66.86 66.50 67.26 67.41 67.60 67.55 66.49 67.60 68.11 67.86 67.53 67.37
70.83 72.39 72.94 73.56 73.88 73.65 72.75 71.86 70.91 69.77 68.61 67.99 68.10 67.69 67.36 68.25 68.02 70.26 70.12 68.77 68.03 66.96 66.67 66.68 67.38 67.66 67.28 67.39 67.72 67.72 67.59 67.50 67.18 67.61 67.72 67.87 66.63 66.93 68.29 69.01 69.09 69.12 68.92
71.16 72.09 72.25 72.86 73.37 72.64 72.39 71.92 71.42 70.36 69.57 68.59 67.80 67.60 67.73 68.09 67.86 69.81 69.92 68.84 67.84 67.37 67.05 67.47 67.74 67.84 68.00 68.30 68.29 67.84 66.96 66.18 67.54 67.14 66.26 67.25 66.10 67.79 68.50 68.86 69.01 69.22 69.40
70.68 71.38 71.61 72.36 72.25 72.90 72.48 71.24 70.98 70.76 70.47 69.84 69.16 68.54 68.29 67.58 66.78 68.63 69.02 68.67 67.79 67.20 67.62 67.98 68.72 68.35 67.41 66.83 65.54 63.92 62.97 64.17 65.38 65.64 66.04 66.42 66.24 67.74 67.76 67.19 66.46 67.15 68.25
69.28 70.51 71.49 71.41 72.50 72.79 72.15 70.84 70.56 70.26 69.73 68.87 68.05 66.90 66.65 67.56 66.57 65.98 65.48 66.35 66.77 67.46 67.14 67.38 65.11 63.54 63.19 61.08 60.39 59.55 61.24 63.33 62.57 62.34 62.97 62.28 63.50 65.03 65.48 65.12 65.32 66.40 67.08
68.31 69.36 71.13 71.63 71.47 72.03 71.60 71.72 70.47 69.46 69.37 69.12 68.90 68.51 67.51 66.62 65.09 66.23 64.97 65.37 65.74 65.68 64.83 61.74 59.58 58.37 62.55 61.86 61.62 60.07 60.84 59.70 59.35 59.82 60.90 61.97 63.00 63.51 63.81 65.53 64.44 64.52 65.31
68.57 69.74 70.43 70.92 71.70 71.95 71.33 71.28 70.61 69.97 70.11 69.59 69.19 68.51 66.22 65.37 66.00 66.48 67.24 67.49 68.34 64.65 65.50 62.46 61.45 59.38 57.88 57.72 57.62 57.25 55.42 55.66 57.30 58.30 59.28 60.20 61.72 62.58 64.38 62.81 62.51 63.55 62.88
67.21 69.22 70.48 70.88 71.48 71.36 71.58 70.90 70.21 69.64 69.97 69.54 69.18 68.42 66.56 65.83 66.30 66.64 67.52 66.43 63.41 61.25 60.39 60.00 58.76 56.37 54.94 53.55 53.60 53.42 52.83 54.50 55.95 57.11 57.36 59.28 60.60 61.47 61.33 60.36 61.04 61.01 60.69
65.63 67.99 69.83 70.99 70.65 71.00 71.37 70.69 70.48 69.81 69.39 69.57 69.26 68.14 67.33 66.62 66.73 67.02 63.03 59.72 56.34 58.18 58.60 57.63 56.01 53.60 52.15 51.16 51.80 51.49 51.80 52.66 54.25 55.65 55.88 56.23 57.18 57.78 58.16 58.43 58.90 58.48 58.57
64.40 65.86 68.39 70.33 71.00 70.31 71.38 71.04 70.50 70.14 69.48 69.55 69.21 67.69 67.94 67.51 67.17 60.38 57.85 54.83 56.61 56.19 55.14 53.75 51.84 50.93 50.52 49.69 49.98 50.19 50.56 51.85 52.64 53.74 54.10 53.24 53.17 54.05 54.58 54.90 54.97 55.07 55.68
62.26 62.71 64.38 67.85 70.60 69.33 71.18 71.21 70.59 70.09 69.29 68.69 68.65 68.34 67.86 65.35 61.77 56.12 52.75 52.74 54.15 52.84 51.31 51.70 51.41 50.52 49.87 48.82 48.36 49.51 50.17 50.39 51.10 51.33 51.32 51.50 50.59 49.85 50.43 51.19 51.31 51.73 52.27
62.03 61.88 61.82 61.81 66.74 69.78 70.46 70.68 70.35 69.73 69.17 69.14 68.38 67.45 62.73 58.45 55.78 52.03 50.48 50.79 51.69 51.25 50.91 49.96 49.57 49.62 48.39 48.00 48.28 49.26 48.99 49.38 49.18 49.26 48.79 49.15 49.26 48.59 47.62 47.49 47.93 48.30 49.18
61.50 61.68 61.44 62.83 63.79 66.96 69.36 69.84 69.78 69.42 68.26 65.46 63.59 59.87 57.68 54.46 51.61 49.45 49.32 50.30 50.26 49.61 49.24 48.18 47.71 47.25 46.65 46.98 46.51 47.24 48.21 49.55 48.40 47.51 47.82 47.83 47.51 47.52 47.17 45.29 45.20 44.93 45.87
60.93 61.38 61.98 63.62 65.49 67.06 67.95 68.42 67.94 65.73 62.38 58.98 57.49 55.50 54.90 51.25 49.84 51.92 50.76 49.55 49.30 48.36 47.41 47.19 46.06 46.02 45.26 45.28 44.87 45.96 50.02 50.31 48.65 48.68 48.38 46.92 47.00 45.97 46.10 45.49 45.27 45.32 44.64
60.33 60.88 62.19 63.82 65.87 66.45 65.96 63.82 60.75 55.55 56.57 52.60 51.51 50.97 49.94 48.72 49.45 51.08 49.95 48.77 48.40 47.11 45.82 45.33 45.48 44.58 44.15 44.82 44.95 47.03 47.18 47.86 48.14 48.79 48.10 45.76 45.73 44.87 44.76 44.40 44.07 43.96 43.91
59.99 61.13 62.98 64.63 64.78 66.33 64.69 63.73 60.76 55.24 52.99 48.83 47.41 46.65 46.52 46.96 48.38 50.13 49.20 47.78 46.97 45.80 45.11 44.64 44.54 44.58 43.68 43.75 41.84 43.19 42.42 43.88 45.72 46.49 45.22 45.39 43.94 44.16 43.71 43.13 43.13 42.91 43.07
59.36 61.05 63.23 64.52 64.27 64.71 64.02 60.84 56.23 52.21 46.90 44.87 43.56 43.64 44.49 45.96 47.19 48.63 47.81 46.71 45.96 45.77 44.29 44.09 43.88 42.97 42.40 42.84 42.20 40.67 40.02 39.81 39.69 44.46 44.16 43.30 43.45 42.57 42.51 42.39 42.10 42.05 41.89
59.21 61.69 63.76 62.88 64.21 63.17 58.14 55.01 54.68 55.47 50.95 45.62 44.25 42.93 43.82 45.46 47.25 46.81 46.31 45.90 45.18 44.73 43.74 42.80 42.58 42.38 42.63 40.81 43.02 41.08 40.92 39.67 37.24 36.64 42.20 42.19 42.15 40.76 41.46 41.53 41.27 41.16 41.28
59.07 61.17 62.28 62.13 63.10 59.80 57.03 57.00 58.70 53.93 52.90 46.52 43.05 42.39 43.31 45.40 46.22 45.50 45.23 44.64 43.81 43.36 42.83 42.39 41.71 41.74 41.93 41.07 40.28 39.97 39.90 39.63 39.30 36.63 35.04 38.47 40.47 41.44 41.31 40.54 40.20 40.36 40.56
59.06 60.90 61.33 62.19 61.14 58.18 55.20 54.29 52.98 48.14 43.95 42.12 42.34 41.96 43.45 45.12 44.51 44.20 43.84 43.73 43.19 42.56 42.12 41.78 41.50 40.62 41.42 40.85 40.17 39.36 38.13 37.14 36.86 36.40 35.41 36.22 36.22 38.77 40.22 40.13 39.33 39.37 39.79
MSLP
1010.30 1010.55 1011.43 1011.77 1012.07 1012.44 1012.80 1013.11 1013.41 1013.65 1013.85 1014.00 1014.11 1014.21 1014.45 1014.59 1014.71 1014.82 1014.96 1015.05 1015.12 1015.10 1015.05 1014.97 1014.90 1014.98 1014.55 1014.52 1014.66 1014.86 1014.98 1015.03 1015.07 1015.17 1015.15 1015.08 1015.09 1014.88 1014.57 1014.43 1014.39 1014.06 1014.43
1009.87 1010.44 1011.51 1011.89 1012.22 1012.52 1012.73 1013.11 1013.49 1013.79 1013.99 1014.13 1014.20 1014.31 1014.46 1014.60 1014.83 1014.96 1015.06 1015.13 1015.24 1015.29 1015.19 1015.17 1015.19 1015.17 1015.01 1014.97 1014.97 1015.10 1015.10 1015.16 1015.27 1015.30 1015.35 1015.19 1015.08 1014.96 1014.82 1014.58 1014.56 1014.06 1014.44
1009.90 1010.35 1011.37 1011.99 1012.36 1012.74 1012.94 1013.17 1013.55 1013.85 1014.08 1014.18 1014.29 1014.42 1014.58 1014.81 1014.95 1015.06 1015.15 1015.27 1015.36 1015.46 1015.49 1015.38 1015.37 1015.42 1015.42 1015.36 1015.34 1015.37 1015.26 1015.20 1015.31 1015.37 1015.25 1014.55 1014.63 1015.15 1014.80 1014.62 1014.65 1014.46 1014.42
1009.89 1010.37 1010.92 1011.97 1012.43 1012.81 1013.16 1013.44 1013.63 1013.92 1014.13 1014.29 1014.46 1014.61 1014.73 1014.79 1014.94 1015.00 1015.18 1015.36 1015.50 1015.62 1015.67 1015.68 1015.66 1015.62 1015.67 1015.58 1015.53 1015.47 1015.36 1015.29 1015.36 1015.48 1014.57 1014.52 1014.47 1014.91 1015.11 1014.73 1014.59 1014.42 1014.37
1010.11 1010.43 1010.79 1012.00 1012.49 1012.88 1013.26 1013.64 1013.86 1014.03 1014.21 1014.37 1014.58 1014.69 1014.90 1014.97 1015.03 1015.14 1015.30 1015.42 1015.59 1015.71 1015.79 1015.75 1015.84 1015.81 1015.82 1015.74 1015.70 1015.64 1015.47 1015.37 1015.43 1015.21 1014.69 1014.65 1014.79 1014.63 1015.07 1014.99 1014.61 1014.35 1014.35
1010.29 1010.61 1011.55 1011.91 1012.47 1012.92 1013.38 1013.71 1013.98 1014.21 1014.35 1014.49 1014.52 1014.75 1015.00 1015.08 1015.12 1015.21 1015.28 1015.46 1015.64 1015.79 1015.88 1015.79 1015.80 1015.78 1015.90 1015.73 1015.71 1015.57 1015.40 1015.40 1015.32 1014.67 1014.61 1014.69 1014.88 1015.04 1015.02 1014.95 1014.81 1014.64 1014.37
1010.56 1010.76 1011.48 1012.11 1012.53 1013.03 1013.36 1013.78 1014.03 1014.22 1014.46 1014.60 1014.74 1014.82 1015.03 1015.19 1015.25 1015.18 1015.21 1015.43 1015.73 1015.85 1015.90 1015.87 1015.71 1015.70 1015.76 1015.71 1015.68 1015.61 1015.50 1015.51 1015.04 1014.62 1014.60 1014.63 1014.61 1015.20 1014.89 1014.77 1014.65 1014.50 1014.34
1010.82 1011.05 1011.31 1012.23 1012.64 1013.06 1013.51 1013.67 1013.96 1014.23 1014.40 1014.63 1014.86 1014.99 1015.12 1015.27 1015.28 1014.96 1015.04 1015.51 1015.77 1015.90 1015.92 1015.81 1015.72 1015.74 1015.73 1015.65 1015.62 1015.62 1015.67 1015.55 1014.81 1014.49 1014.56 1014.50 1014.92 1015.10 1014.79 1014.56 1014.35 1014.23 1014.15
1010.79 1011.15 1011.38 1011.83 1012.63 1013.16 1013.54 1013.78 1013.93 1014.12 1014.38 1014.60 1014.83 1015.09 1015.18 1015.38 1015.41 1015.26 1015.32 1015.64 1015.87 1015.98 1015.92 1015.88 1015.83 1015.73 1015.75 1015.63 1015.66 1015.64 1015.68 1015.54 1014.87 1014.33 1014.61 1014.32 1015.08 1014.93 1014.52 1014.30 1014.12 1014.00 1013.85
1010.70 1011.10 1011.42 1011.46 1012.21 1012.67 1013.29 1013.81 1014.02 1014.19 1014.40 1014.52 1014.79 1015.09 1015.37 1015.49 1015.54 1015.60 1015.73 1015.86 1015.99 1016.05 1016.04 1016.01 1015.91 1015.82 1015.97 1015.92 1015.89 1015.90 1015.71 1015.33 1014.54 1014.59 1014.38 1014.57 1015.14 1014.75 1014.39 1014.30 1014.11 1013.96 1013.77
1010.52 1010.83 1011.16 1011.35 1011.69 1012.20 1012.62 1013.47 1014.04 1014.16 1014.34 1014.65 1014.84 1015.08 1015.29 1014.97 1015.22 1015.32 1015.86 1016.07 1016.10 1016.13 1016.10 1016.17 1016.16 1016.20 1016.15 1016.13 1016.00 1015.96 1015.63 1014.95 1014.64 1014.75 1014.50 1015.21 1014.97 1014.60 1014.39 1014.29 1014.09 1013.92 1013.83
1010.01 1010.37 1010.83 1011.19 1011.61 1012.05 1012.50 1012.96 1013.31 1013.52 1013.94 1014.07 1014.30 1014.63 1014.63 1014.98 1015.10 1015.29 1015.75 1016.01 1016.19 1016.26 1016.30 1016.37 1016.34 1016.14 1015.90 1015.54 1015.54 1015.64 1015.27 1015.24 1014.90 1015.09 1014.76 1015.39 1014.87 1014.51 1014.38 1014.34 1014.35 1014.15 1013.97
1009.49 1009.90 1010.58 1010.94 1011.47 1011.92 1012.16 1012.64 1012.84 1013.10 1013.35 1013.76 1014.12 1014.34 1014.57 1014.93 1015.13 1015.25 1015.30 1015.38 1015.49 1016.14 1015.78 1016.01 1015.91 1015.92 1016.07 1015.97 1015.89 1015.70 1015.72 1015.49 1015.09 1015.28 1015.62 1015.70 1015.05 1014.65 1014.69 1014.80 1014.62 1014.37 1014.39
1009.33 1009.56 1010.10 1010.63 1011.27 1011.75 1011.49 1012.28 1012.36 1012.67 1012.95 1013.37 1013.82 1014.07 1014.30 1014.55 1014.81 1014.92 1015.05 1015.50 1015.84 1016.12 1016.05 1016.10 1016.01 1016.17 1016.16 1016.18 1016.19 1015.94 1015.86 1015.67 1015.34 1015.52 1015.95 1016.10 1015.55 1015.24 1015.19 1015.24 1015.00 1014.94 1014.80
1008.93 1009.24 1009.74 1010.35 1010.84 1011.23 1011.25 1011.65 1011.98 1012.24 1012.81 1012.93 1013.38 1013.76 1013.83 1014.13 1014.42 1014.82 1015.41 1016.06 1016.40 1016.30 1016.22 1016.27 1016.27 1016.14 1016.28 1016.34 1016.29 1016.12 1015.81 1015.78 1015.73 1015.73 1016.09 1016.60 1016.19 1016.00 1015.87 1015.69 1015.58 1015.48 1015.26
1008.27 1008.55 1009.11 1009.75 1010.39 1010.91 1010.86 1011.08 1011.40 1011.78 1012.27 1012.71 1013.07 1013.48 1013.82 1013.96 1014.35 1015.43 1015.85 1016.47 1016.24 1016.48 1016.68 1016.65 1016.56 1016.62 1016.53 1016.44 1016.32 1016.29 1016.00 1016.05 1016.02 1016.08 1016.16 1016.81 1016.88 1016.63 1016.46 1016.28 1016.14 1015.99 1015.74
1007.47 1007.93 1008.44 1009.04 1009.65 1010.57 1010.63 1010.81 1010.94 1011.24 1011.84 1012.44 1012.83 1013.35 1013.78 1014.46 1015.01 1015.82 1016.34 1016.51 1016.43 1016.75 1016.87 1016.92 1016.93 1016.92 1016.70 1016.49 1016.33 1016.42 1016.24 1016.18 1016.23 1016.29 1016.49 1016.49 1016.76 1017.12 1017.09 1016.85 1016.68 1016.46 1016.19
1007.26 1007.46 1008.13 1008.75 1009.03 1009.64 1010.04 1010.45 1010.65 1010.86 1011.45 1012.05 1012.73 1013.54 1014.17 1014.79 1015.32 1016.03 1016.59 1016.74 1016.60 1016.87 1017.09 1017.20 1017.27 1016.96 1016.83 1016.60 1016.28 1016.32 1016.33 1016.34 1016.41 1016.50 1016.69 1016.62 1016.82 1016.65 1016.97 1017.19 1017.00 1016.78 1016.51
1006.78 1006.91 1007.52 1008.26 1008.55 1008.90 1009.52 1010.14 1010.55 1010.90 1011.64 1012.56 1013.31 1013.85 1014.29 1014.99 1015.56 1016.07 1016.57 1016.72 1016.89 1017.15 1017.36 1017.34 1017.53 1017.23 1017.02 1016.82 1016.45 1016.31 1016.40 1016.25 1016.49 1016.62 1016.73 1016.93 1017.08 1016.95 1016.87 1016.99 1016.98 1016.70 1016.67
1006.20 1006.35 1006.74 1007.42 1007.95 1008.65 1009.34 1010.09 1010.68 1011.55 1012.26 1012.76 1013.38 1013.99 1014.50 1015.17 1015.60 1015.72 1016.30 1016.74 1017.07 1017.39 1017.41 1017.57 1017.68 1017.60 1017.65 1017.32 1016.77 1016.48 1016.52 1016.35 1016.59 1016.54 1016.72 1016.78 1016.96 1017.04 1016.91 1016.89 1016.60 1016.22 1016.32
1005.75 1006.04 1006.35 1006.87 1007.62 1008.42 1009.37 1010.11 1010.97 1011.68 1012.47 1013.25 1013.78 1014.36 1014.90 1015.31 1015.58 1015.72 1016.35 1016.89 1017.27 1017.44 1017.64 1017.84 1017.86 1017.81 1017.89 1017.72 1016.92 1016.43 1016.39 1016.56 1016.53 1016.42 1016.55 1016.40 1016.71 1016.85 1016.75 1016.63 1016.45 1016.19 1015.83
1005.06 1005.54 1006.10 1006.60 1007.56 1008.09 1008.96 1009.97 1010.62 1011.69 1012.86 1013.58 1014.29 1014.91 1015.32 1015.65 1015.81 1015.82 1016.37 1016.99 1017.41 1017.68 1017.93 1018.11 1018.06 1018.06 1018.19 1018.32 1017.81 1017.23 1016.28 1016.08 1016.24 1016.38 1016.38 1016.63 1016.43 1016.55 1016.48 1016.49 1016.46 1016.23 1015.94
1004.53 1005.06 1005.70 1006.47 1007.28 1007.80 1008.76 1009.79 1010.90 1012.21 1013.19 1014.16 1014.88 1015.41 1015.75 1015.93 1016.03 1016.18 1016.67 1017.18 1017.64 1017.87 1018.14 1018.38 1018.49 1018.41 1018.31 1018.69 1018.69 1018.05 1017.11 1016.67 1016.83 1016.17 1016.25 1016.33 1016.44 1016.51 1016.54 1016.58 1016.41 1016.12 1015.89
1003.86 1004.57 1005.39 1006.42 1006.80 1007.50 1008.88 1009.58 1010.24 1010.61 1011.92 1013.56 1014.44 1015.34 1015.84 1016.07 1016.23 1016.52 1016.98 1017.39 1017.76 1018.04 1018.32 1018.58 1018.83 1018.89 1018.71 1018.75 1018.79 1018.89 1018.64 1018.37 1017.58 1016.51 1016.32 1016.31 1016.52 1016.72 1016.59 1016.45 1016.27 1015.96 1015.70
1003.27 1004.16 1005.09 1006.09 1006.59 1007.34 1008.12 1008.92 1009.92 1010.86 1011.81 1013.22 1014.50 1015.27 1015.77 1016.12 1016.48 1016.79 1017.25 1017.70 1017.96 1018.19 1018.50 1018.77 1019.03 1019.12 1019.18 1019.00 1019.05 1018.95 1018.68 1018.52 1018.32 1017.97 1016.62 1016.10 1016.26 1016.16 1016.27 1016.35 1016.21 1015.82 1015.42
1002.71 1003.85 1005.00 1005.45 1006.21 1007.15 1007.89 1008.70 1009.39 1010.47 1011.77 1013.33 1014.42 1015.12 1015.62 1016.11 1016.73 1017.15 1017.55 1017.91 1018.21 1018.42 1018.66 1018.97 1019.19 1019.30 1019.33 1019.40 1019.37 1019.22 1018.94 1018.63 1018.18 1018.04 1017.27 1016.61 1016.21 1015.87 1015.82 1015.87 1015.83 1015.57 1015.32
Wind_Speed
9 15 16 17 17 17 15 13 11 10 8 7 6 7 9 10 10 9 7 6 7 8 6 7 9 12 1 2 8 8 5 4 6 7 7 6 6 5 3 1 3 8 3
15 15 14 15 17 16 15 13 11 10 8 6 7 8 8 9 8 8 7 5 6 7 7 4 6 7 9 9 8 6 6 5 4 5 5 3 2 4 4 4 3 2 4
16 15 16 15 16 15 15 14 12 10 8 7 8 9 9 10 10 7 6 5 5 7 7 6 6 6 6 7 6 4 3 3 2 2 3 4 3 4 4 5 4 4 4
15 14 16 16 16 16 14 13 12 10 9 7 8 11 9 8 5 5 5 5 5 6 7 6 6 7 6 5 5 4 4 4 4 3 5 4 4 2 8 9 6 9 8
14 13 13 16 16 16 14 13 11 10 9 9 9 10 9 7 6 5 5 4 5 5 5 6 6 5 5 5 5 4 3 2 0 8 5 4 6 5 8 10 10 8 9
13 13 13 16 17 15 14 13 12 10 10 10 11 9 2 5 3 4 6 6 6 5 4 4 3 4 5 5 4 5 7 6 5 5 5 3 6 6 8 10 10 10 10
12 12 14 13 16 15 15 13 12 11 10 9 7 6 3 3 4 5 5 8 7 4 2 1 3 4 4 4 4 5 5 5 7 5 5 5 5 7 9 9 10 11 12
12 11 12 11 16 15 14 14 13 11 10 9 8 6 4 4 6 8 11 9 6 3 1 3 5 5 5 5 5 5 5 6 6 5 6 5 5 8 10 11 12 12 13
11 11 10 13 13 13 13 12 12 12 11 9 7 5 3 6 7 8 9 7 4 2 3 4 5 4 4 5 5 5 4 4 8 5 7 5 9 10 11 11 11 12 14
11 10 10 11 11 12 12 10 10 10 10 11 8 6 6 5 4 7 5 6 4 3 4 5 7 8 7 8 8 6 3 6 5 5 4 5 9 9 10 10 10 12 13
10 12 11 11 11 11 10 11 9 8 9 10 9 8 6 3 4 5 7 3 3 5 6 8 9 8 5 8 8 4 7 3 4 4 4 9 9 8 8 8 9 9 12
12 13 12 12 11 10 8 11 10 9 8 8 7 7 4 4 4 2 4 4 5 6 9 8 7 4 3 3 2 3 3 5 4 4 4 10 7 7 6 9 10 10 11
10 11 13 12 11 12 9 8 6 6 6 6 7 6 6 5 5 4 4 4 4 2 3 2 2 4 5 5 4 4 5 5 3 3 8 10 7 5 9 11 11 11 13
9 11 13 14 14 12 9 8 8 7 7 6 7 8 6 4 5 5 3 3 3 3 3 3 3 4 4 5 5 5 5 5 3 2 7 12 12 10 10 11 10 13 12
11 12 13 13 13 13 13 10 9 9 8 8 8 8 7 6 5 5 5 4 3 2 3 2 3 4 4 5 4 5 5 4 3 1 4 11 12 12 11 12 13 13 13
12 12 12 15 15 14 14 13 10 9 9 8 8 8 8 5 5 6 5 4 4 3 3 3 4 3 3 4 4 4 4 2 1 1 2 7 12 12 12 12 12 13 13
11 11 12 14 14 14 15 13 11 10 9 8 8 10 8 7 8 8 5 4 4 4 4 3 3 3 3 3 4 3 2 1 0 3 2 2 5 10 12 12 13 13 14
11 10 10 10 14 16 15 13 10 10 10 9 8 7 10 10 10 8 5 4 5 4 3 3 3 2 4 4 4 3 3 3 3 3 3 3 3 3 3 10 12 12 14
12 12 10 10 13 15 15 12 12 12 9 8 7 7 11 10 10 8 6 6 6 4 3 3 3 4 5 5 4 4 4 4 4 3 3 2 3 4 4 4 9 8 12
12 12 10 8 11 13 10 8 9 8 8 7 7 7 11 9 11 9 7 7 5 4 4 3 4 4 5 7 5 4 1 3 4 3 2 1 1 3 4 6 7 7 10
11 11 12 12 12 12 10 11 10 7 8 7 7 10 11 9 9 11 8 7 5 5 5 4 3 5 5 7 4 1 2 2 5 5 4 5 1 4 5 5 7 7 7
13 12 12 13 14 14 12 10 6 9 7 7 6 7 8 9 7 10 10 7 7 6 6 5 4 2 3 6 5 3 3 3 1 4 4 1 5 4 6 10 10 10 10
14 13 13 14 16 14 15 9 10 10 8 6 5 5 6 7 8 10 10 8 7 5 5 5 5 5 3 3 6 4 2 3 7 2 4 5 4 6 9 9 11 12 11
15 13 14 14 17 16 16 13 18 12 12 6 8 6 7 7 10 10 10 8 7 6 6 5 4 4 3 3 1 3 3 4 4 5 2 5 5 9 11 9 10 12 11
16 15 15 17 18 17 18 16 14 13 8 9 8 12 9 9 10 10 9 9 8 5 6 5 4 3 3 3 3 3 3 4 5 5 9 6 9 9 9 7 11 8 10
14 15 16 19 18 18 15 15 15 16 16 12 11 9 8 8 8 9 9 8 7 7 6 5 4 3 2 1 3 3 4 4 6 6 10 12 13 11 8 10 7 9 9
Wind_Direction
163 155 173 167 160 153 150 142 134 129 127 129 139 148 152 148 140 123 103 78 51 43 32 18 34 32 151 216 110 108 101 69 47 40 32 29 15 6 358 316 251 245 126
152 159 167 166 153 153 150 143 136 131 130 138 153 158 155 149 143 120 113 89 58 46 41 32 36 40 45 69 77 81 79 61 46 44 22 151 103 359 344 316 288 85 256
155 161 171 160 155 155 153 145 141 137 132 135 143 141 133 114 119 126 107 95 76 53 45 48 41 39 37 47 53 43 28 31 25 36 314 298 335 355 328 309 276 236 253
156 161 166 161 156 155 153 149 146 145 136 122 130 128 111 118 148 155 137 133 103 72 62 60 53 45 39 37 29 20 7 4 16 320 274 332 317 63 318 311 268 246 235
161 164 145 155 157 155 154 151 148 144 140 138 129 135 127 173 158 168 161 149 124 91 79 72 56 42 32 22 6 346 334 343 1 265 348 346 329 36 322 307 296 307 250
166 167 130 155 155 155 152 154 151 145 145 142 144 150 112 223 237 223 198 166 146 125 103 82 49 32 10 9 352 342 352 18 266 339 332 350 288 9 315 308 303 299 294
169 173 159 159 154 153 155 159 155 153 156 156 151 146 130 86 33 316 209 158 152 140 110 51 10 6 347 341 338 345 351 351 309 320 318 327 328 330 308 299 285 285 281
171 169 157 157 154 157 163 162 160 159 159 168 173 176 156 71 20 348 159 149 152 144 63 3 358 346 352 357 354 354 352 341 275 318 329 317 19 319 308 295 291 280 278
171 171 169 173 166 159 163 165 163 163 160 163 175 183 139 88 49 61 113 131 135 78 24 6 352 350 354 14 20 23 6 335 289 337 316 307 23 315 307 313 319 315 309
169 171 176 175 178 180 170 166 170 175 171 157 156 142 117 114 91 84 108 89 88 44 28 14 23 42 50 54 51 37 357 246 340 309 305 19 324 312 320 331 335 328 328
176 176 184 181 183 185 181 166 180 193 183 148 145 127 162 200 178 173 71 80 61 61 47 53 60 55 91 88 61 25 281 354 342 341 338 358 323 321 327 335 349 14 14
185 186 184 189 193 191 182 173 188 177 178 189 180 170 177 175 153 138 105 99 80 83 88 83 76 79 310 11 34 225 352 339 345 335 18 339 334 337 353 45 41 30 30
200 187 191 188 189 199 188 190 187 186 182 181 179 172 149 160 167 176 152 160 150 171 109 132 110 43 30 7 350 351 344 323 327 340 41 358 356 19 56 48 35 40 33
214 206 195 195 186 198 185 199 192 195 186 186 187 176 167 165 165 160 122 92 88 79 97 48 45 35 25 9 352 335 334 324 327 343 67 12 47 52 51 41 37 34 21
222 211 206 202 199 194 193 195 193 196 198 190 183 183 175 168 165 144 119 98 94 109 59 48 25 24 8 352 342 334 334 334 330 36 89 37 49 52 48 38 40 26 18
231 222 206 202 197 199 199 194 189 194 194 186 184 178 176 167 141 125 114 113 106 72 53 37 29 11 355 347 338 342 341 333 356 92 84 84 56 54 48 39 29 21 12
232 230 224 213 198 202 207 197 192 188 187 187 183 169 162 145 138 125 118 126 110 89 74 52 39 355 346 347 340 328 315 317 96 127 97 73 115 66 46 35 24 14 6
253 229 219 213 213 201 205 199 193 186 182 180 169 159 144 137 132 120 117 123 110 99 82 57 5 3 352 346 334 324 298 210 175 131 97 73 57 25 85 27 14 6 357
247 239 221 216 214 206 203 196 189 184 166 154 149 146 140 134 130 122 132 126 110 103 90 74 47 12 5 351 335 314 293 209 191 168 114 53 50 8 346 8 354 338 343
246 238 231 208 198 194 182 173 164 155 146 134 137 140 139 135 137 135 129 122 117 119 103 90 64 48 12 347 321 321 254 190 199 205 236 303 7 341 340 333 331 332 323
237 231 218 194 185 178 167 169 162 150 143 124 121 133 133 132 143 137 126 124 122 105 93 76 77 37 26 353 318 311 216 222 234 238 247 290 234 313 309 329 326 325 324
233 215 207 191 184 184 182 176 157 132 125 114 107 108 116 130 140 134 132 125 122 116 98 73 50 64 42 14 351 302 325 180 164 221 312 255 304 315 325 330 326 323 322
226 207 199 188 185 178 174 145 125 123 112 110 102 103 113 132 134 127 125 124 119 112 99 83 59 32 32 48 18 334 292 312 335 234 236 311 271 322 327 323 315 318 317
219 202 191 180 186 173 160 152 166 158 152 150 138 130 129 134 132 125 125 127 121 117 113 96 77 52 351 16 244 13 335 319 308 303 241 272 316 299 308 309 308 314 308
214 189 181 185 181 167 172 165 169 151 135 133 129 134 138 139 133 130 130 130 123 115 109 108 102 74 50 352 338 318 305 283 263 281 298 309 299 305 302 304 303 292 310
200 182 179 183 178 172 164 161 155 141 138 138 146 144 151 143 136 134 133 125 124 123 124 118 110 87 56 343 301 287 301 306 307 295 291 299 302 305 309 299 291 304 308